Total_Precipitation_Accumulation
1.45 1.41 1.97 1.85 1.63 1.58 1.46 1.43 1.33 1.24 1.14 0.99 0.87 0.77 0.70 0.67 0.66 0.68 0.64 0.56 0.54 0.53 0.50 0.57 0.66 0.57 0.56 0.57 0.57 0.61 0.68 0.71 0.66 0.57 0.59 0.60 0.61 0.74 0.92 1.03 1.17 1.20 1.06
1.12 1.37 2.07 1.96 1.77 1.64 1.50 1.45 1.33 1.13 0.97 0.87 0.79 0.71 0.64 0.62 0.64 0.62 0.56 0.52 0.51 0.48 0.48 0.59 0.67 0.67 0.67 0.71 0.75 0.80 0.84 0.78 0.72 0.66 0.78 0.82 0.76 0.83 0.94 1.05 1.35 1.28 1.01
1.04 1.20 1.63 2.06 1.92 1.66 1.50 1.40 1.32 1.15 0.89 0.76 0.71 0.67 0.59 0.53 0.53 0.53 0.51 0.47 0.48 0.48 0.48 0.56 0.65 0.64 0.67 0.74 0.83 0.84 0.83 0.82 0.76 0.84 1.30 1.79 1.37 1.06 0.96 1.07 1.18 1.07 0.94
0.97 1.07 1.31 1.88 1.80 1.62 1.50 1.35 1.41 1.21 0.90 0.77 0.73 0.66 0.57 0.51 0.54 0.61 0.61 0.52 0.50 0.50 0.48 0.51 0.62 0.60 0.60 0.68 0.72 0.71 0.75 0.81 0.88 1.14 1.69 2.12 1.88 1.40 1.22 1.13 1.08 1.00 0.91
0.94 1.07 1.57 1.93 1.62 1.44 1.34 1.34 1.42 1.27 1.06 0.91 0.78 0.67 0.61 0.56 0.57 0.66 0.60 0.58 0.57 0.55 0.55 0.59 0.64 0.62 0.56 0.55 0.58 0.63 0.75 0.99 1.19 1.24 1.54 1.81 1.94 1.65 1.34 1.17 1.11 1.06 1.05
0.91 1.06 1.41 1.62 1.48 1.37 1.29 1.26 1.26 1.26 1.24 1.02 0.84 0.76 0.74 0.70 0.69 0.72 0.71 0.64 0.65 0.65 0.66 0.65 0.64 0.64 0.61 0.61 0.60 0.67 0.87 1.11 1.20 1.27 1.54 1.71 1.74 1.54 1.27 1.16 1.22 1.30 1.32
0.76 0.92 1.16 1.42 1.32 1.24 1.18 1.18 1.13 1.18 1.24 1.09 0.85 0.85 0.88 0.80 0.78 0.80 0.81 0.71 0.71 0.69 0.70 0.71 0.67 0.67 0.65 0.65 0.67 0.77 0.90 0.97 0.96 1.20 1.53 1.78 1.57 1.37 1.28 1.17 1.19 1.40 1.53
0.85 0.85 0.95 1.17 1.23 1.13 1.12 1.17 1.04 1.05 1.13 1.08 0.96 0.90 0.84 0.82 0.85 0.86 0.81 0.77 0.74 0.74 0.74 0.76 0.77 0.72 0.68 0.69 0.74 0.85 0.95 0.88 0.76 0.92 1.13 1.60 1.83 1.65 1.31 1.13 1.18 1.31 1.47
1.23 1.11 0.91 0.85 0.92 0.97 1.05 1.15 1.10 1.05 1.05 1.01 1.05 0.99 0.95 0.92 0.87 0.81 0.80 0.80 0.80 0.82 0.82 0.79 0.75 0.74 0.74 0.74 0.74 0.80 0.91 0.90 0.84 0.87 0.91 1.41 1.82 1.74 1.35 1.13 1.13 1.35 1.47
1.24 1.16 0.97 0.85 0.84 0.85 0.80 0.95 1.16 1.20 1.14 1.03 1.01 1.01 0.99 0.94 0.85 0.80 0.74 0.76 0.83 0.86 0.91 0.90 0.82 0.82 0.80 0.76 0.76 0.83 0.89 0.81 0.70 0.71 0.88 1.27 1.80 1.82 1.57 1.16 0.99 1.05 1.15
1.01 0.98 0.93 0.91 0.93 0.99 0.99 0.97 1.19 1.27 1.19 1.00 0.90 0.93 0.94 0.80 0.82 0.84 0.74 0.88 0.90 0.97 1.00 1.00 0.95 0.92 0.85 0.81 0.86 0.95 0.83 0.65 0.73 0.72 0.91 1.30 1.66 1.75 1.64 1.31 0.98 0.91 0.98
0.82 0.76 0.72 0.73 0.80 0.91 0.99 1.33 1.54 1.33 1.21 0.95 0.94 0.83 0.89 0.96 1.03 0.86 0.81 1.00 1.04 1.09 1.07 1.07 1.10 1.00 0.82 0.67 0.77 0.85 0.72 0.69 0.70 0.66 0.90 1.33 1.57 1.65 1.57 1.39 1.12 0.99 1.01
0.63 0.55 0.52 0.49 0.51 0.60 0.80 1.14 1.43 1.55 1.52 1.43 1.19 0.96 0.97 0.85 0.74 0.68 0.70 0.81 0.90 0.98 0.96 0.98 1.00 0.84 0.74 0.69 0.65 0.63 0.74 0.71 0.75 0.79 1.02 1.34 1.50 1.61 1.58 1.42 1.22 1.13 1.13
0.60 0.56 0.49 0.46 0.42 0.44 0.53 0.70 0.90 1.05 1.14 1.16 1.01 0.91 0.98 0.87 0.76 0.76 0.76 0.76 0.77 0.86 0.98 1.01 0.97 0.85 0.75 0.64 0.61 0.66 0.72 0.70 0.83 1.05 1.23 1.21 1.35 1.57 1.65 1.52 1.37 1.25 1.22
0.67 0.70 0.61 0.50 0.45 0.44 0.48 0.56 0.63 0.78 0.87 0.90 0.92 0.88 0.91 0.92 0.89 0.86 0.78 0.78 0.73 0.80 0.91 1.00 0.96 0.86 0.82 0.76 0.72 0.79 0.83 0.89 0.92 1.00 1.09 1.11 1.26 1.56 1.79 1.78 1.58 1.39 1.31
0.71 0.70 0.70 0.60 0.55 0.51 0.48 0.51 0.55 0.65 0.74 0.78 0.76 0.76 0.86 0.94 0.94 0.91 0.86 0.87 0.85 0.87 0.99 0.97 0.90 0.95 0.95 0.88 0.75 0.75 0.83 0.89 0.93 0.93 0.97 1.10 1.17 1.26 1.65 1.88 1.87 1.67 1.57
0.69 0.66 0.65 0.65 0.64 0.63 0.61 0.59 0.57 0.64 0.74 0.76 0.73 0.68 0.70 0.78 0.84 0.87 0.88 0.88 0.93 1.02 1.07 1.08 0.92 0.96 0.94 0.85 0.79 0.74 0.73 0.75 0.80 0.86 0.83 0.83 0.92 1.06 1.36 1.73 1.98 1.88 1.74
0.55 0.54 0.57 0.58 0.62 0.68 0.71 0.72 0.73 0.73 0.80 0.77 0.76 0.69 0.64 0.69 0.77 0.90 0.91 0.89 0.93 1.06 1.14 1.18 1.09 1.06 1.00 0.97 0.93 0.85 0.77 0.80 0.77 0.83 0.84 0.77 0.89 0.86 1.05 1.25 1.51 1.69 1.77
0.46 0.45 0.48 0.52 0.53 0.64 0.73 0.76 0.84 0.86 0.87 0.85 0.84 0.74 0.71 0.77 0.84 1.01 1.11 1.13 1.13 1.15 1.15 1.09 1.14 1.14 1.12 1.12 1.03 0.98 0.90 0.85 0.88 0.81 0.84 0.87 0.81 0.84 0.95 0.85 0.94 1.10 1.43
0.36 0.37 0.42 0.47 0.49 0.56 0.70 0.82 0.97 1.09 1.05 1.07 1.01 0.89 0.91 1.05 1.19 1.33 1.33 1.40 1.48 1.36 1.33 1.26 1.27 1.23 1.17 1.21 1.10 0.99 0.92 0.84 0.92 0.95 0.94 0.95 0.90 0.83 0.92 0.87 0.84 0.77 0.96
0.25 0.28 0.34 0.38 0.46 0.53 0.61 0.75 0.96 1.24 1.35 1.44 1.40 1.22 1.16 1.28 1.52 1.73 1.69 1.74 1.78 1.67 1.63 1.67 1.86 1.82 1.55 1.31 1.34 1.18 0.99 0.85 0.97 1.01 0.99 1.02 1.03 1.09 1.13 1.02 0.88 0.86 0.75
0.17 0.19 0.25 0.33 0.43 0.51 0.60 0.78 0.94 1.08 1.08 1.26 1.41 1.39 1.30 1.29 1.44 1.58 1.83 1.93 1.86 1.89 2.01 2.03 2.36 2.50 2.07 1.64 1.63 1.74 1.48 1.27 1.02 0.89 0.95 0.99 1.09 1.28 1.27 1.06 0.96 0.87 0.81
0.13 0.14 0.18 0.25 0.36 0.49 0.64 0.87 1.09 1.27 1.36 1.42 1.35 1.43 1.44 1.37 1.41 1.51 1.67 1.83 1.84 1.92 2.01 2.13 2.45 2.92 2.68 2.15 1.90 2.09 1.79 1.58 1.40 1.07 0.93 0.96 1.08 1.29 1.42 1.30 1.20 1.10 0.95
0.12 0.11 0.15 0.24 0.39 0.60 0.81 1.06 1.31 1.51 1.55 1.44 1.48 1.51 1.40 1.34 1.31 1.37 1.52 1.66 1.78 1.81 1.94 2.04 2.16 2.62 2.95 2.64 2.34 2.00 1.66 1.58 1.68 1.50 1.17 1.11 1.15 1.22 1.30 1.25 1.23 1.31 1.21
0.19 0.20 0.27 0.47 0.72 0.97 1.19 1.44 1.72 1.72 1.61 1.51 1.51 1.48 1.42 1.44 1.40 1.39 1.54 1.61 1.63 1.69 1.79 2.12 2.38 2.63 2.82 2.76 2.66 2.47 2.21 1.92 1.59 1.71 1.65 1.41 1.29 1.21 1.22 1.26 1.27 1.31 1.32
0.49 0.64 0.83 1.10 1.28 1.37 1.49 1.65 1.76 1.73 1.74 1.68 1.50 1.40 1.40 1.44 1.49 1.54 1.60 1.61 1.58 1.61 1.72 1.95 2.23 2.44 2.74 2.90 2.79 2.58 2.43 2.30 2.08 1.95 1.73 1.61 1.59 1.38 1.29 1.29 1.23 1.26 1.36